C/2015 T2 ( PanSTARRS )

Japanese version
Home page
Updated on September 23, 2018

---------------------------------------------------------------------

* Profile

Discovery Date October 9, 2015
Magnitude 21.8 mag
Discoverer Pan-STARRS 1 telescope (Haleakala)

* Pictures

* Orbital Elements

Epoch 2017 May 7.0 TT = JDT 2457880.5
T 2017 May 20.44934 TT                                  MPCW
q   6.9353622            (2000.0)            P               Q
z  -0.0000515      Peri.   30.76253     +0.76567329     +0.05755549
 +/-0.0000008      Node    51.06043     +0.27838130     -0.92753107
e   1.0003575      Incl.  124.54725     +0.57986917     +0.36928779
From 181 observations 2015 Oct. 9-2018 Aug. 20, mean residual 0".4.

* Magnitudes Graph

        m1 = 2.0 + 5 log d + 15.0 log r(t - 200)

---------------------------------------------------------------------

The orbital elements are published on M.P.E.C. 2018-S50.
The magnitudes graphs are made with Comet for Windows.

---------------------------------------------------------------------

Copyright(C) Seiichi Yoshida (comet@aerith.net). All rights reserved.